Location: Bayou Vista
(29.6905°N, 91.2709°W)
Time: 04:35:35
(UTC+00:00)

Transit 4A - Pass Details

Date: 17 August 2024
Orbit: 867 x 976 km, 66.8° (Epoch: 09 September)

Event Time Altitude Azimuth Distance (km) Brightness Sun altitude
Rises 01:07:14 0° 335° (NNW) 3,582 11.7 -5.6°
Reaches altitude 10° 01:09:45 10° 336° (NNW) 2,652 11.0 -6.1°
Maximum altitude 01:15:58 89° 65° (ENE) 959 8.0 -7.4°
Drops below altitude 10° 01:22:18 10° 157° (SSE) 2,700 9.9 -8.7°
Sets 01:24:52 0° 157° (SSE) 3,651 10.6 -9.2°
